PBO Station Position Time Series. Reference Frame : NAM14
Format Version,1.1.0
4-character ID,LEV6
Station name,Level_Island_6
Begin Date, 2007-08-25
End Date, 2020-06-30
Release Date, 2021-08-28
Reference position, 56.4656594272 North Latitude, -133.0923870849 East Longitude, 25.44505 meters elevation,
Date, North (mm), East (mm), Vertical (mm), North Std. Deviation (mm), East Std. Deviation (mm),              Vertical Std. Deviation (mm), Quality,
2007-08-25,0.00, 0.00, 0.00, 2.52, 1.65, 7.60, repro,
2007-08-26,-0.37, -0.03, 0.47, 2.45, 1.60, 7.26, repro,
2007-08-27,-0.56, -0.31, -2.55, 2.48, 1.60, 7.31, repro,
2007-08-30,-3.11, 0.86, 10.26, 7.64, 4.44, 21.44, repro,
2007-10-21,0.27, -1.17, 4.22, 2.37, 1.51, 7.05, repro,
2007-10-22,-1.80, -0.88, 3.44, 2.53, 1.61, 7.77, repro,
2007-11-29,1.28, -0.55, -11.30, 2.72, 1.71, 8.20, repro,
2007-12-04,2.60, -1.79, -6.65, 2.50, 1.67, 8.30, repro,
2007-12-06,1.89, -1.86, -10.20, 2.54, 1.75, 8.52, repro,
2007-12-07,2.87, -2.20, -8.45, 2.54, 1.66, 7.81, repro,
2007-12-08,1.44, -2.18, -7.69, 2.61, 1.70, 8.05, repro,
2007-12-09,1.46, 0.69, -8.73, 2.62, 1.76, 8.51, repro,
2007-12-10,2.78, -0.59, -5.93, 2.74, 1.85, 8.43, repro,
2008-01-09,-0.88, -0.85, -6.73, 3.20, 1.99, 8.95, repro,
2008-04-23,0.25, 0.03, -10.01, 5.72, 3.65, 17.46, repro,
2008-05-01,2.79, 0.59, -26.49, 3.32, 2.10, 9.92, repro,
2008-05-15,4.98, 1.43, -24.09, 4.78, 2.80, 13.45, repro,
2008-05-16,3.12, 1.23, -30.48, 4.23, 2.40, 11.94, repro,
2008-06-09,7.18, -2.90, -21.36, 6.62, 3.90, 20.18, repro,
2008-06-20,8.66, 3.57, -13.47, 8.90, 5.27, 21.29, repro,
2008-06-21,3.59, -0.40, -23.83, 2.36, 1.49, 7.14, repro,
2008-06-22,2.99, 0.75, -25.38, 2.40, 1.50, 7.11, repro,
2008-06-23,1.51, 0.97, -20.09, 2.83, 1.81, 8.86, repro,
2008-10-25,1.27, -0.43, -4.22, 2.41, 1.50, 7.09, repro,
2008-10-26,3.39, -0.25, -14.35, 2.41, 1.50, 7.08, repro,
2008-10-27,3.42, 0.10, -10.71, 2.40, 1.50, 7.09, repro,
2008-10-28,2.53, -2.00, -5.53, 2.62, 1.57, 7.45, repro,
2008-10-29,1.11, -0.60, -8.01, 2.73, 1.64, 7.81, repro,
2008-10-30,1.84, -0.47, -8.44, 2.51, 1.54, 7.27, repro,
2008-10-31,1.30, 2.75, -14.59, 4.25, 2.78, 14.20, repro,
2008-11-01,3.60, 0.46, -5.22, 2.55, 1.61, 7.45, repro,
2008-11-02,1.05, -0.96, -2.72, 2.45, 1.53, 7.27, repro,
2008-11-03,1.33, -0.39, -2.51, 2.44, 1.53, 7.24, repro,
2008-11-04,1.95, -0.81, -6.96, 2.42, 1.52, 7.25, repro,
2008-11-05,1.71, 0.82, -5.15, 2.40, 1.53, 7.16, repro,
2008-11-06,1.58, 0.21, -14.42, 2.46, 1.56, 7.44, repro,
2008-11-07,2.05, -0.00, -10.23, 2.45, 1.55, 7.28, repro,
2008-11-08,2.72, -0.16, -8.05, 2.48, 1.60, 7.63, repro,
2008-11-09,2.38, -0.82, -4.01, 2.48, 1.59, 7.59, repro,
2008-11-10,1.36, -1.11, -4.28, 2.39, 1.54, 7.21, repro,
2008-11-11,2.30, -0.13, -1.98, 2.48, 1.60, 7.60, repro,
2008-11-12,0.46, -1.08, -0.02, 2.44, 1.53, 7.24, repro,
2008-11-21,4.34, 0.57, -7.57, 2.56, 1.66, 7.97, repro,
2008-11-22,3.08, -0.88, -2.10, 2.52, 1.65, 7.81, repro,
2008-11-23,1.63, 1.52, -7.46, 2.51, 1.60, 7.57, repro,
2008-11-25,2.74, -0.67, -7.00, 2.40, 1.55, 7.28, repro,
2008-11-28,1.24, 0.53, -7.38, 2.43, 1.57, 7.48, repro,
2008-11-29,1.03, 1.65, -6.04, 2.48, 1.60, 7.62, repro,
2008-11-30,0.77, -0.00, -2.96, 2.45, 1.55, 7.32, repro,
2008-12-01,1.49, -0.33, -11.76, 2.38, 1.52, 7.06, repro,
2008-12-03,2.45, 0.01, -16.91, 2.50, 1.57, 7.37, repro,
2008-12-04,3.11, 1.52, -14.62, 2.43, 1.61, 7.48, repro,
2008-12-05,1.90, -0.26, -12.60, 2.91, 1.76, 8.41, repro,
2008-12-20,2.65, 0.10, -21.90, 2.47, 1.57, 7.43, repro,
2008-12-21,3.65, -0.49, -23.51, 2.40, 1.50, 7.07, repro,
2008-12-22,5.20, -0.33, -17.84, 2.43, 1.51, 7.23, repro,
2008-12-23,3.46, -0.58, -12.87, 2.41, 1.53, 7.25, repro,
2008-12-24,1.15, -0.88, -9.78, 2.39, 1.50, 7.08, repro,
2008-12-25,4.68, -1.24, -6.90, 2.41, 1.49, 7.08, repro,
2008-12-26,1.52, -0.71, -9.18, 2.41, 1.52, 7.09, repro,
2008-12-27,2.20, -0.64, -11.67, 2.44, 1.53, 7.32, repro,
2008-12-29,4.06, -0.82, -28.43, 2.42, 1.50, 7.13, repro,
2008-12-30,0.13, 0.64, -28.29, 2.41, 1.49, 7.09, repro,
2008-12-31,1.12, 0.76, -26.11, 2.41, 1.48, 7.05, repro,
2009-01-01,1.07, -0.04, -20.22, 2.62, 1.62, 7.59, repro,
2009-01-02,2.77, -0.21, -22.27, 2.39, 1.49, 7.06, repro,
2009-01-03,3.32, -0.36, -19.15, 2.39, 1.50, 7.11, repro,
2009-01-04,1.84, -0.24, -17.89, 2.42, 1.53, 7.20, repro,
2009-01-05,4.17, -0.69, -3.44, 4.84, 3.50, 15.62, repro,
2009-01-06,1.07, -0.76, -14.17, 2.43, 1.50, 7.15, repro,
2009-01-07,2.47, -0.24, -15.74, 2.40, 1.49, 7.05, repro,
2009-01-08,1.76, -1.03, -18.55, 2.45, 1.55, 7.19, repro,
2009-01-09,4.38, -0.25, -19.88, 2.46, 1.55, 7.34, repro,
2009-01-10,3.21, -0.23, -23.40, 2.41, 1.50, 7.10, repro,
2009-01-11,1.08, -0.08, -26.13, 2.44, 1.51, 7.14, repro,
2009-01-12,2.84, 0.03, -26.53, 2.44, 1.51, 7.13, repro,
2009-01-13,3.67, 0.45, -26.66, 2.45, 1.53, 7.21, repro,
2009-01-14,4.55, 0.10, -23.07, 2.38, 1.51, 7.08, repro,
2009-01-15,2.83, -0.00, -16.67, 2.40, 1.50, 7.14, repro,
2009-01-16,3.06, 0.05, -18.72, 2.39, 1.49, 7.07, repro,
2009-01-17,3.56, 0.19, -24.70, 2.44, 1.50, 7.10, repro,
2009-01-18,4.45, -0.73, -17.96, 2.48, 1.53, 7.24, repro,
2009-01-19,3.77, 0.31, -23.47, 2.50, 1.54, 7.34, repro,
2009-01-20,3.87, 0.16, -25.75, 2.40, 1.51, 7.12, repro,
2009-01-21,4.35, 0.17, -18.39, 2.43, 1.53, 7.24, repro,
2009-01-22,5.15, 0.38, -23.65, 2.37, 1.49, 7.03, repro,
2009-01-23,4.09, 0.06, -34.46, 2.47, 1.52, 7.21, repro,
2009-01-24,3.66, -0.12, -27.86, 2.41, 1.51, 7.18, repro,
2009-01-25,4.54, 0.62, -27.26, 2.36, 1.48, 7.01, repro,
2009-01-26,3.67, 0.51, -20.83, 2.36, 1.48, 7.03, repro,
2009-01-27,4.66, 0.10, -21.99, 2.41, 1.51, 7.21, repro,
2009-01-28,3.74, 0.99, -22.71, 2.41, 1.51, 7.12, repro,
2009-01-29,2.17, 2.02, -16.35, 2.39, 1.51, 7.18, repro,
2009-01-30,3.15, -0.33, -14.91, 2.41, 1.52, 7.18, repro,
2009-01-31,3.49, -1.14, -13.28, 2.38, 1.48, 7.02, repro,
2009-02-01,4.84, 1.06, -21.39, 2.37, 1.49, 7.02, repro,
2009-02-02,3.91, 0.14, -18.08, 2.37, 1.49, 7.02, repro,
2009-02-03,1.13, -0.41, -17.42, 2.98, 1.85, 8.73, repro,
2009-02-04,3.85, 0.62, -23.93, 2.38, 1.50, 7.05, repro,
2009-02-05,4.37, 0.73, -18.66, 2.47, 1.55, 7.25, repro,
2009-02-06,3.95, 0.56, -16.38, 2.45, 1.54, 7.21, repro,
2009-02-07,4.76, 0.17, -11.93, 2.38, 1.49, 7.04, repro,
2009-02-08,2.52, 1.01, -17.47, 2.39, 1.48, 7.01, repro,
2009-02-09,3.50, 0.19, -20.92, 2.45, 1.53, 7.17, repro,
2009-02-10,4.41, 0.51, -24.30, 2.39, 1.50, 7.05, repro,
2009-02-11,2.35, 1.30, -24.22, 2.44, 1.54, 7.18, repro,
2009-02-12,3.48, 0.51, -28.01, 2.72, 1.76, 8.08, repro,
2009-02-13,3.31, 1.43, -31.42, 2.38, 1.49, 7.07, repro,
2009-02-14,4.14, 1.83, -29.32, 2.36, 1.49, 7.02, repro,
2009-02-15,1.79, 1.43, -23.47, 2.36, 1.50, 7.02, repro,
2009-02-16,3.20, 1.13, -20.63, 2.39, 1.51, 7.10, repro,
2009-02-17,3.95, 0.97, -21.38, 2.42, 1.52, 7.13, repro,
2009-02-18,4.58, 1.26, -22.90, 2.38, 1.49, 7.07, repro,
2009-02-19,2.29, 2.74, -27.51, 2.37, 1.50, 7.09, repro,
2009-02-20,2.62, 1.58, -32.17, 2.33, 1.50, 6.99, repro,
2009-02-21,3.94, 1.88, -29.86, 2.36, 1.51, 7.08, repro,
2009-02-22,5.39, 0.53, -24.36, 2.37, 1.51, 7.05, repro,
2009-02-23,3.75, 1.39, -32.91, 2.42, 1.53, 7.12, repro,
2009-02-24,5.67, 0.85, -23.16, 2.60, 1.79, 7.62, repro,
2009-02-25,3.09, -1.23, -34.17, 199.89, 311.54, 529.16, repro,
2009-02-26,2.33, 0.70, -26.09, 2.39, 1.53, 7.10, repro,
2009-02-27,2.20, 1.12, -25.44, 2.41, 1.54, 7.13, repro,
2009-02-28,2.12, 0.35, -33.59, 2.37, 1.50, 7.05, repro,
2009-03-01,1.49, 1.83, -26.31, 2.36, 1.50, 7.04, repro,
2009-03-02,2.86, 1.54, -20.50, 2.37, 1.50, 7.11, repro,
2009-03-03,2.14, 0.07, -17.29, 2.42, 1.56, 7.23, repro,
2009-03-04,2.41, 0.76, -24.77, 2.35, 1.51, 7.06, repro,
2009-03-05,2.33, 0.69, -24.59, 2.39, 1.54, 7.14, repro,
2009-03-06,2.62, 2.02, -22.58, 2.40, 1.56, 7.32, repro,
2009-03-07,2.76, 2.39, -23.97, 2.36, 1.50, 7.06, repro,
2009-03-08,4.34, 2.56, -31.67, 2.41, 1.56, 7.41, repro,
2009-03-09,2.69, 0.83, -28.62, 2.35, 1.52, 7.12, repro,
2009-03-10,2.92, 1.39, -33.15, 2.43, 1.58, 7.32, repro,
2009-03-11,1.47, 1.40, -30.25, 2.38, 1.50, 7.06, repro,
2009-03-12,1.31, 2.03, -28.98, 2.40, 1.55, 7.25, repro,
2009-03-13,0.93, 1.32, -21.11, 2.36, 1.51, 7.10, repro,
2009-03-14,1.65, 0.16, -16.48, 2.35, 1.51, 7.05, repro,
2009-03-15,2.10, -0.24, -11.15, 2.35, 1.51, 7.04, repro,
2009-03-16,1.53, 0.72, -16.01, 2.36, 1.50, 7.03, repro,
2009-03-17,3.23, 1.01, -20.70, 2.38, 1.50, 7.07, repro,
2009-03-18,1.97, 0.32, -24.18, 2.39, 1.50, 7.11, repro,
2009-03-19,2.12, 1.37, -26.75, 2.35, 1.48, 7.01, repro,
2009-03-20,3.07, 1.34, -21.42, 2.32, 1.49, 6.98, repro,
2009-03-21,1.69, -0.00, -24.15, 2.32, 1.51, 7.00, repro,
2009-03-22,1.38, -0.05, -24.40, 2.47, 1.57, 7.50, repro,
2009-03-23,2.03, 1.81, -28.78, 2.36, 1.50, 7.11, repro,
2009-03-24,2.87, 0.33, -23.03, 2.37, 1.50, 7.08, repro,
2009-03-25,4.31, 2.01, -25.41, 2.34, 1.50, 7.04, repro,
2009-03-26,2.01, 0.87, -20.46, 2.33, 1.49, 7.03, repro,
2009-03-27,1.56, -0.08, -15.18, 2.37, 1.50, 7.05, repro,
2009-03-28,2.38, 1.05, -22.46, 2.38, 1.49, 7.06, repro,
2009-03-29,1.56, 1.50, -25.38, 2.36, 1.49, 7.05, repro,
2009-03-30,1.76, 0.65, -17.86, 2.39, 1.51, 7.12, repro,
2009-03-31,3.01, 0.34, -19.92, 2.39, 1.51, 7.13, repro,
2009-04-01,3.23, 0.55, -22.78, 2.35, 1.50, 7.06, repro,
2009-04-02,0.48, 0.20, -25.81, 2.46, 1.54, 7.21, repro,
2009-04-03,1.89, 0.24, -26.05, 2.44, 1.52, 7.19, repro,
2009-04-04,2.12, 1.69, -24.28, 2.39, 1.51, 7.14, repro,
2009-04-05,4.15, 0.89, -18.49, 2.36, 1.49, 7.06, repro,
2009-04-06,3.14, 0.81, -27.78, 2.38, 1.51, 7.14, repro,
2009-04-07,2.21, -0.14, -22.86, 2.38, 1.53, 7.13, repro,
2009-04-08,2.21, -0.68, -18.68, 2.38, 1.53, 7.21, repro,
2009-04-09,0.63, -0.54, -24.09, 2.38, 1.51, 7.12, repro,
2009-04-10,1.15, 1.19, -21.67, 2.35, 1.51, 7.03, repro,
2009-04-11,1.26, 0.94, -22.22, 2.39, 1.51, 7.12, repro,
2009-04-12,3.11, 0.55, -18.41, 2.38, 1.50, 7.10, repro,
2009-04-13,3.10, -0.37, -27.12, 2.33, 1.51, 7.11, repro,
2009-04-14,3.17, 0.94, -27.81, 2.36, 1.51, 7.11, repro,
2009-04-15,2.53, 2.27, -20.50, 2.35, 1.50, 7.10, repro,
2009-04-16,3.64, 1.75, -27.04, 2.35, 1.50, 7.08, repro,
2009-04-17,3.81, 0.02, -23.62, 2.35, 1.52, 7.09, repro,
2009-04-18,1.76, 0.42, -26.12, 2.36, 1.51, 7.13, repro,
2009-04-19,0.78, 0.46, -22.42, 2.39, 1.51, 7.20, repro,
2009-04-20,1.29, 1.11, -25.38, 2.40, 1.53, 7.26, repro,
2009-04-21,1.75, 1.14, -28.92, 2.40, 1.53, 7.41, repro,
2009-04-22,1.97, 0.78, -23.18, 2.33, 1.50, 7.06, repro,
2009-04-23,4.92, 1.35, -30.26, 2.34, 1.49, 7.05, repro,
2009-04-24,3.24, 0.40, -22.00, 2.36, 1.50, 7.09, repro,
2009-04-25,4.10, 0.66, -25.08, 2.38, 1.53, 7.23, repro,
2009-04-26,4.45, 2.33, -28.96, 2.32, 1.51, 7.11, repro,
2009-04-27,4.26, 2.10, -29.63, 2.31, 1.48, 7.03, repro,
2009-04-28,5.03, 2.83, -31.33, 2.34, 1.50, 7.13, repro,
2009-04-29,2.56, 3.78, -23.62, 3.57, 2.24, 10.11, repro,
2009-04-30,4.11, 2.84, -33.48, 2.42, 1.56, 7.44, repro,
2009-05-01,4.34, 2.83, -35.45, 2.33, 1.50, 7.10, repro,
2009-05-02,5.21, 1.63, -25.55, 2.34, 1.49, 7.08, repro,
2009-05-03,3.06, 2.20, -21.90, 2.38, 1.51, 7.23, repro,
2009-05-04,4.78, 0.69, -18.67, 2.32, 1.49, 7.06, repro,
2009-05-05,3.96, 0.78, -19.30, 2.36, 1.49, 7.11, repro,
2009-05-06,2.71, 0.73, -18.14, 2.37, 1.51, 7.19, repro,
2009-05-07,5.25, 1.04, -21.71, 2.35, 1.52, 7.14, repro,
2009-05-08,5.28, 2.31, -26.47, 2.31, 1.50, 7.09, repro,
2009-05-09,3.14, 1.62, -23.85, 2.31, 1.49, 7.05, repro,
2009-05-10,3.81, 1.24, -26.70, 2.32, 1.49, 7.06, repro,
2009-05-11,3.45, 2.16, -27.23, 2.45, 1.54, 7.37, repro,
2009-05-12,4.85, 2.18, -23.24, 2.45, 1.52, 7.25, repro,
2009-05-13,5.17, 2.54, -17.20, 2.33, 1.49, 7.13, repro,
2009-05-14,4.62, 0.54, -23.59, 2.34, 1.51, 7.25, repro,
2009-05-15,4.56, 2.68, -18.32, 2.36, 1.51, 7.17, repro,
2009-05-16,3.80, 0.87, -23.84, 2.33, 1.49, 7.11, repro,
2009-05-17,3.05, 1.15, -21.82, 2.37, 1.53, 7.29, repro,
2009-05-18,4.73, 1.31, -23.21, 2.33, 1.50, 7.13, repro,
2009-05-19,4.96, 1.06, -21.17, 2.91, 1.89, 8.71, repro,
2009-05-20,2.32, 2.30, -24.94, 2.34, 1.52, 7.26, repro,
2009-05-21,4.22, 1.11, -24.67, 2.32, 1.50, 7.13, repro,
2009-05-22,5.21, 0.94, -23.81, 2.36, 1.49, 7.14, repro,
2009-05-23,4.01, 1.44, -28.40, 2.38, 1.51, 7.23, repro,
2009-05-24,4.97, 2.17, -28.65, 2.37, 1.50, 7.27, repro,
2009-05-25,5.35, 2.44, -25.35, 2.34, 1.49, 7.14, repro,
2009-05-26,-1.55, 1.16, -27.35, 3.17, 1.88, 9.37, repro,
2009-05-27,3.14, 1.28, -20.65, 2.74, 1.70, 8.24, repro,
2009-05-28,4.30, 1.21, -15.94, 2.59, 1.62, 7.97, repro,
2009-05-29,3.49, 0.81, -14.35, 2.34, 1.49, 7.14, repro,
2009-05-30,4.27, 2.25, -20.76, 2.32, 1.49, 7.12, repro,
2009-05-31,4.97, 1.27, -27.10, 2.31, 1.48, 7.08, repro,
2009-06-01,3.43, 2.13, -26.09, 2.35, 1.51, 7.24, repro,
2009-06-02,3.60, 1.51, -28.70, 2.48, 1.59, 7.67, repro,
2009-06-03,3.88, 2.57, -28.39, 2.38, 1.51, 7.29, repro,
2009-06-04,4.52, 1.83, -28.33, 2.31, 1.48, 7.08, repro,
2009-06-05,2.69, 1.27, -27.40, 2.32, 1.48, 7.12, repro,
2009-06-06,3.48, 1.23, -25.39, 2.38, 1.51, 7.28, repro,
2009-06-07,3.24, 0.34, -23.63, 2.32, 1.50, 7.14, repro,
2009-06-08,2.23, 1.82, -26.99, 2.35, 1.51, 7.23, repro,
2009-06-09,3.09, 2.15, -20.40, 2.42, 1.54, 7.41, repro,
2009-06-10,2.18, 3.85, -25.60, 2.89, 1.92, 9.26, repro,
2009-06-11,0.94, 1.32, -33.57, 3.21, 1.99, 9.43, repro,
2009-06-12,0.66, 3.32, -20.52, 2.35, 1.49, 7.13, repro,
2009-06-13,1.53, 1.51, -19.94, 2.35, 1.51, 7.17, repro,
2009-06-14,0.90, 1.96, -20.85, 2.40, 1.55, 7.37, repro,
2009-06-15,2.74, 2.21, -19.96, 2.36, 1.50, 7.19, repro,
2009-06-16,0.86, 1.41, -21.72, 2.37, 1.50, 7.23, repro,
2009-06-17,-0.30, 1.82, -20.14, 2.39, 1.52, 7.26, repro,
2009-06-18,0.57, 0.06, -15.51, 2.34, 1.50, 7.14, repro,
2009-06-19,1.98, 1.94, -17.18, 2.41, 1.56, 7.51, repro,
2009-06-20,2.96, 1.73, -18.22, 2.37, 1.53, 7.32, repro,
2009-06-21,1.83, 1.91, -14.78, 2.38, 1.52, 7.28, repro,
2009-06-22,0.16, 1.93, -18.21, 2.36, 1.52, 7.19, repro,
2009-06-23,0.40, 2.67, -16.05, 2.38, 1.52, 7.31, repro,
2009-06-24,1.82, 0.73, -10.47, 2.64, 1.68, 8.16, repro,
2009-06-25,1.62, 2.50, -20.20, 2.37, 1.52, 7.24, repro,
2009-06-26,1.85, 2.69, -19.92, 2.37, 1.52, 7.26, repro,
2009-06-27,1.83, 0.75, -8.27, 2.40, 1.53, 7.31, repro,
2009-06-28,0.11, 1.18, -19.89, 2.46, 1.57, 7.47, repro,
2009-06-29,2.32, 1.93, -16.93, 2.39, 1.54, 7.35, repro,
2009-06-30,0.78, 1.12, -22.42, 2.37, 1.53, 7.27, repro,
2009-07-01,1.37, 2.74, -23.79, 2.37, 1.53, 7.28, repro,
2009-07-02,4.64, 2.53, -27.64, 4.20, 2.96, 13.99, repro,
2009-07-03,1.81, 2.31, -22.97, 2.35, 1.50, 7.13, repro,
2009-07-04,2.23, 2.62, -26.68, 2.35, 1.50, 7.15, repro,
2009-07-05,1.92, 2.96, -22.74, 2.39, 1.53, 7.28, repro,
2009-07-06,1.03, 2.42, -19.75, 2.34, 1.50, 7.10, repro,
2009-07-07,2.85, 2.69, -20.08, 2.38, 1.51, 7.24, repro,
2009-07-08,1.84, 1.16, -12.28, 2.42, 1.55, 7.33, repro,
2009-07-09,2.12, 1.51, -21.95, 2.36, 1.52, 7.18, repro,
2009-07-10,0.39, 2.23, -21.84, 2.41, 1.55, 7.40, repro,
2009-07-11,-0.01, 1.32, -17.02, 2.41, 1.56, 7.39, repro,
2009-07-12,1.57, 2.43, -18.38, 2.37, 1.51, 7.21, repro,
2009-07-13,2.36, 2.47, -15.35, 2.35, 1.50, 7.16, repro,
2009-07-14,2.20, 2.80, -21.46, 2.44, 1.57, 7.48, repro,
2009-07-15,-0.02, 2.96, -15.51, 2.37, 1.51, 7.20, repro,
2009-07-16,-0.72, 2.22, -18.87, 2.40, 1.52, 7.31, repro,
2009-07-17,1.17, 2.70, -14.03, 2.38, 1.52, 7.32, repro,
2009-07-19,2.62, 2.95, -14.99, 2.35, 1.51, 7.22, repro,
2009-07-20,1.17, 2.09, -20.12, 2.38, 1.51, 7.24, repro,
2009-07-21,1.94, 1.06, -16.75, 2.46, 1.60, 7.51, repro,
2009-07-22,1.30, 1.41, -13.89, 2.45, 1.55, 7.46, repro,
2009-07-23,-0.16, 2.58, -6.43, 2.51, 1.56, 7.65, repro,
2009-07-24,0.27, 2.95, -13.70, 2.42, 1.56, 7.57, repro,
2009-07-25,2.34, 1.13, -15.63, 2.45, 1.53, 7.40, repro,
2009-07-26,-0.15, 1.60, -20.24, 5.59, 4.13, 15.86, repro,
2009-07-27,1.09, 2.04, -13.23, 2.37, 1.52, 7.25, repro,
2009-07-28,3.09, 0.35, -19.38, 2.39, 1.51, 7.25, repro,
2009-07-29,-0.34, 1.84, -20.06, 2.37, 1.50, 7.20, repro,
2009-07-30,0.86, 1.97, -9.57, 2.47, 1.55, 7.44, repro,
2009-07-31,0.06, 1.56, -13.41, 2.37, 1.50, 7.14, repro,
2009-08-01,-0.09, 1.26, -12.88, 2.40, 1.54, 7.38, repro,
2009-08-02,0.42, 1.53, -12.86, 2.40, 1.53, 7.32, repro,
2009-08-03,0.68, 1.92, -16.85, 2.50, 1.58, 7.61, repro,
2009-08-04,1.01, 1.90, -13.09, 2.35, 1.50, 7.11, repro,
2009-08-05,0.20, 2.87, -13.66, 2.42, 1.55, 7.37, repro,
2009-08-06,-6.33, -13.31, 10.24, 15.68, 21.91, 31.25, repro,
2009-08-07,-2.29, 1.57, -11.46, 2.40, 1.54, 7.32, repro,
2009-08-08,-3.89, 2.01, -13.24, 2.40, 1.54, 7.35, repro,
2009-08-09,-1.44, 0.23, -13.46, 2.40, 1.53, 7.37, repro,
2009-08-10,-0.51, 0.94, -10.24, 4.01, 2.48, 11.59, repro,
2009-08-11,-1.21, 1.60, -8.60, 2.38, 1.52, 7.22, repro,
2009-08-12,-0.23, 0.28, -9.29, 2.42, 1.53, 7.32, repro,
2009-08-13,-1.25, 0.33, -6.94, 2.38, 1.52, 7.21, repro,
2009-08-14,-0.95, 2.28, -12.69, 2.39, 1.52, 7.25, repro,
2009-08-15,-1.12, 0.81, -4.49, 2.35, 1.50, 7.11, repro,
2009-08-16,0.29, 1.02, -6.78, 2.38, 1.52, 7.28, repro,
2009-08-17,-0.47, 0.94, -0.29, 2.40, 1.52, 7.27, repro,
2009-08-18,-0.26, 1.10, -5.98, 2.39, 1.52, 7.28, repro,
2009-08-19,0.27, 0.66, -2.04, 2.39, 1.52, 7.24, repro,
2009-08-20,-1.78, 1.22, -9.42, 2.43, 1.52, 7.35, repro,
2009-08-21,0.39, 0.05, -8.29, 2.45, 1.55, 7.49, repro,
2009-08-22,-0.70, 1.01, -1.98, 2.46, 1.59, 7.56, repro,
2009-08-23,-0.84, 1.67, -2.91, 2.40, 1.54, 7.35, repro,
2009-08-24,-0.90, 0.11, 5.10, 2.47, 1.57, 7.57, repro,
2009-08-25,-1.01, -0.64, 7.82, 2.47, 1.55, 7.49, repro,
2009-08-26,1.31, 0.37, -1.84, 2.46, 1.56, 7.39, repro,
2009-08-27,0.76, 2.53, -5.73, 2.44, 1.57, 7.50, repro,
2009-08-28,-2.06, 1.41, -0.04, 2.38, 1.53, 7.41, repro,
2009-08-29,0.64, 2.71, -7.60, 2.40, 1.55, 7.48, repro,
2009-08-30,-2.84, 3.01, -10.36, 2.47, 1.55, 7.51, repro,
2009-08-31,-0.12, 0.60, -12.02, 2.39, 1.51, 7.35, repro,
2009-09-01,-0.17, 1.57, -6.95, 2.42, 1.57, 7.59, repro,
2009-09-02,-0.37, 1.87, -2.97, 2.51, 1.64, 7.91, repro,
2009-09-09,3.04, -1.58, -4.27, 7.09, 4.84, 24.85, repro,
2009-09-10,-2.10, 1.71, -1.99, 2.41, 1.53, 7.40, repro,
2009-09-11,-0.48, 0.12, -10.20, 2.43, 1.54, 7.39, repro,
2009-09-12,-2.55, 0.61, -2.89, 2.36, 1.51, 7.24, repro,
2009-09-13,0.41, -1.97, -2.11, 2.39, 1.53, 7.31, repro,
2009-09-14,0.13, -0.22, 0.09, 2.37, 1.49, 7.13, repro,
2009-09-15,-2.34, 0.29, -7.96, 2.42, 1.52, 7.34, repro,
2009-09-16,1.38, -3.31, 0.39, 2.41, 1.52, 7.30, repro,
2009-09-17,-0.52, -0.92, 3.47, 2.38, 1.51, 7.24, repro,
2009-09-18,-2.39, 0.21, 2.40, 2.38, 1.54, 7.54, repro,
2009-09-19,-2.87, -0.91, 1.47, 2.39, 1.51, 7.27, repro,
2009-09-20,-0.83, -1.37, 2.34, 3.27, 2.07, 10.30, repro,
2009-09-21,5.21, 1.31, -27.81, 6.62, 4.53, 22.94, repro,
2009-09-22,0.38, -0.81, -3.12, 2.45, 1.55, 7.45, repro,
2009-09-23,-6.46, -1.09, -3.43, 2.47, 1.57, 7.54, repro,
2009-09-24,-0.96, -0.48, -3.55, 2.35, 1.50, 7.15, repro,
2009-09-25,0.44, 0.68, 5.34, 2.44, 1.54, 7.43, repro,
2009-09-27,-1.85, -0.25, -7.69, 2.40, 1.50, 7.27, repro,
2009-09-28,-1.27, -1.69, -7.56, 2.40, 1.53, 7.31, repro,
2009-09-29,-1.48, -2.39, -4.44, 2.41, 1.54, 7.32, repro,
2009-09-30,-1.30, -1.78, -6.54, 2.35, 1.50, 7.22, repro,
2009-10-01,1.10, -0.92, -11.98, 2.55, 1.66, 8.15, repro,
2009-10-02,-0.34, -1.86, -15.88, 2.69, 1.68, 8.13, repro,
2009-10-03,-0.27, -0.58, -12.57, 2.37, 1.50, 7.22, repro,
2009-10-04,-0.54, -0.94, -10.53, 2.37, 1.50, 7.21, repro,
2009-10-05,-1.97, -1.30, -8.97, 2.35, 1.51, 7.22, repro,
2009-10-06,-1.09, -1.23, -2.44, 2.41, 1.51, 7.31, repro,
2009-10-07,1.18, -1.52, -8.14, 2.39, 1.51, 7.29, repro,
2009-10-08,-2.77, -1.26, -11.11, 2.48, 1.56, 7.37, repro,
2009-10-09,-0.19, -1.05, -16.05, 2.39, 1.50, 7.25, repro,
2009-10-10,0.78, -0.31, -15.41, 2.35, 1.51, 7.21, repro,
2009-10-11,0.11, -0.54, -11.23, 2.35, 1.49, 7.17, repro,
2009-10-12,1.46, 0.81, -9.09, 2.37, 1.50, 7.22, repro,
2009-10-13,2.88, -3.09, -8.89, 2.40, 1.54, 7.38, repro,
2009-10-14,-1.96, -2.32, 0.68, 2.46, 1.54, 7.39, repro,
2009-10-15,1.67, -2.90, -2.62, 2.64, 1.67, 8.36, repro,
2009-10-16,-0.60, -2.65, -1.80, 2.49, 1.65, 8.06, repro,
2009-10-17,-0.23, -0.20, -10.28, 2.42, 1.53, 7.46, repro,
2009-10-18,-0.02, -0.77, -9.60, 2.48, 1.59, 7.73, repro,
2009-10-19,-1.02, 0.23, -13.23, 2.41, 1.54, 7.50, repro,
2009-10-20,-2.15, 0.03, -10.67, 2.41, 1.55, 7.53, repro,
2009-10-21,1.25, -1.41, 3.12, 2.38, 1.53, 7.39, repro,
2009-10-22,-0.20, -1.49, 1.56, 2.45, 1.56, 7.59, repro,
2009-10-23,2.95, 0.88, -0.97, 2.42, 1.55, 7.50, repro,
2009-10-24,1.21, 0.30, -1.51, 2.46, 1.59, 7.62, repro,
2009-10-25,0.55, 0.49, 5.90, 2.44, 1.56, 7.68, repro,
2009-10-26,-1.09, -1.49, 2.37, 2.43, 1.60, 7.66, repro,
2009-10-27,-1.74, -1.60, -2.10, 2.40, 1.56, 7.53, repro,
2009-10-28,-0.57, 0.44, -9.99, 2.47, 1.57, 7.56, repro,
2009-10-29,-0.07, -0.15, -4.02, 2.54, 1.63, 7.81, repro,
2009-10-30,-0.49, -0.70, -1.24, 2.40, 1.54, 7.37, repro,
2009-10-31,-0.94, -0.20, 7.57, 2.45, 1.57, 7.48, repro,
2009-11-01,-1.09, -1.34, -7.64, 2.43, 1.56, 7.35, repro,
2009-11-02,2.06, 0.33, -0.19, 2.45, 1.56, 7.41, repro,
2009-11-03,1.32, -0.87, -7.80, 2.40, 1.53, 7.35, repro,
2009-11-04,0.35, 0.85, -9.06, 2.42, 1.55, 7.41, repro,
2009-11-05,-1.91, -2.65, 6.58, 2.79, 1.87, 8.74, repro,
2009-11-06,-1.10, -1.95, 14.98, 2.67, 1.74, 8.22, repro,
2009-11-07,0.07, -1.61, 11.68, 2.41, 1.55, 7.57, repro,
2009-11-08,-1.18, 0.25, 2.31, 2.49, 1.58, 7.67, repro,
2009-11-09,2.39, -0.33, -2.31, 2.40, 1.57, 7.61, repro,
2009-11-10,1.53, -0.59, -4.60, 2.39, 1.56, 7.55, repro,
2009-11-11,0.15, -0.55, -5.61, 2.41, 1.55, 7.51, repro,
2009-11-12,0.39, 0.61, 2.65, 2.46, 1.59, 7.72, repro,
2009-11-13,0.64, -0.20, 3.62, 2.45, 1.59, 7.64, repro,
2009-11-14,-1.58, -1.99, 9.09, 2.56, 1.65, 7.90, repro,
2009-11-15,1.58, 0.13, 4.61, 2.41, 1.55, 7.54, repro,
2009-11-16,2.95, -0.19, 0.51, 2.43, 1.55, 7.54, repro,
2009-11-17,0.66, 0.03, 0.28, 2.44, 1.56, 7.65, repro,
2009-11-18,0.28, 0.33, -2.56, 2.48, 1.60, 7.85, repro,
2009-11-19,1.35, -0.54, 0.30, 2.37, 1.54, 7.40, repro,
2009-11-20,0.25, -0.70, -6.95, 2.39, 1.55, 7.47, repro,
2009-11-21,-0.11, -0.88, -5.27, 2.39, 1.53, 7.27, repro,
2009-11-22,2.11, -0.42, -1.87, 2.41, 1.54, 7.28, repro,
2009-11-23,-0.36, -0.54, -3.05, 2.37, 1.52, 7.22, repro,
2009-11-24,1.67, -0.64, -4.62, 2.36, 1.53, 7.21, repro,
2009-11-25,0.64, -0.95, -12.23, 2.45, 1.58, 7.69, repro,
2009-11-26,1.04, -1.10, -10.24, 2.55, 1.61, 7.93, repro,
2009-11-27,0.69, 0.74, -9.52, 2.43, 1.55, 7.53, repro,
2009-11-28,0.79, -1.23, -9.04, 2.76, 1.73, 8.63, repro,
2009-11-30,3.93, 1.14, -14.34, 3.62, 2.39, 11.64, repro,
2009-12-01,0.96, 1.09, -17.33, 2.42, 1.54, 7.44, repro,
2009-12-02,0.56, 1.66, -17.96, 2.37, 1.51, 7.21, repro,
2009-12-03,0.57, 2.30, -14.07, 3.02, 1.84, 8.96, repro,
2009-12-05,4.91, 3.10, -25.21, 4.64, 3.20, 14.53, repro,
2009-12-06,2.73, 0.57, -23.58, 2.32, 1.49, 7.09, repro,
2009-12-07,0.82, 0.44, -23.09, 2.36, 1.49, 7.15, repro,
2009-12-08,0.98, 0.06, -15.23, 2.38, 1.50, 7.20, repro,
2009-12-09,0.97, -0.08, -14.65, 2.57, 1.61, 7.95, repro,
2009-12-10,1.37, 0.77, -13.34, 2.42, 1.54, 7.31, repro,
2009-12-11,0.61, 0.20, -10.14, 2.34, 1.52, 7.35, repro,
2009-12-12,2.49, -0.29, -13.03, 2.36, 1.52, 7.40, repro,
2009-12-13,0.76, -0.00, -17.20, 2.35, 1.50, 7.18, repro,
2009-12-14,2.00, 0.23, -18.39, 2.34, 1.48, 7.11, repro,
2009-12-15,1.76, 0.02, -15.89, 2.33, 1.48, 7.06, repro,
2009-12-16,-0.02, -0.32, -11.88, 2.33, 1.49, 7.11, repro,
2009-12-17,2.49, -0.63, -11.91, 2.33, 1.49, 7.10, repro,
2009-12-18,1.29, -0.08, -7.57, 2.37, 1.51, 7.24, repro,
2009-12-19,0.42, -0.63, -18.33, 2.38, 1.52, 7.36, repro,
2009-12-20,1.68, -0.53, -21.10, 2.37, 1.52, 7.29, repro,
2009-12-21,1.61, 0.20, -21.00, 2.37, 1.51, 7.30, repro,
2009-12-22,2.82, 0.71, -15.34, 2.36, 1.53, 7.32, repro,
2009-12-23,1.15, -1.44, -20.31, 2.48, 1.60, 7.56, repro,
2009-12-24,-0.88, -0.37, -21.69, 2.37, 1.52, 7.28, repro,
2009-12-25,1.78, -0.43, -18.61, 2.37, 1.53, 7.37, repro,
2009-12-26,3.56, -0.19, -15.94, 2.36, 1.53, 7.33, repro,
2009-12-27,3.22, -0.94, -24.00, 2.39, 1.53, 7.39, repro,
2009-12-28,3.12, -0.75, -15.36, 2.34, 1.50, 7.18, repro,
2009-12-29,1.98, 0.23, -24.70, 2.50, 1.60, 7.68, repro,
2009-12-30,-0.13, -3.04, -21.86, 3.48, 2.15, 10.10, repro,